Location: Observatoire
(46.1952°N, 5.3391°E)
Time: 13:40:47
(UTC+02:00)

CUTE 1.7 + AOD 2 - Pass Details

Date: 29 April 2024
Orbit: 569 x 586 km, 97.8° (Epoch: 25 May)

Event Time Altitude Azimuth Distance (km) Brightness Sun altitude
Rises 05:48:16 0° 6° (N) 2,785 ? -7.0°
Reaches altitude 10° 05:50:29 10° 360° (N) 1,881 ? -6.6°
Maximum altitude 05:54:20 42° 289° (WNW) 821 ? -6.1°
Drops below altitude 10° 05:58:09 10° 219° (SW) 1,866 ? -5.5°
Enters shadow 05:59:39 - 213° (SSW) 2,472 ? -5.2°
